Volver al catálogo

COSMOS 963

ActivoMilitarPO
NORAD 10491·PAYLOAD·🇷🇺 Russia

Lanzado Nov 24, 1977 desde Plesetsk Cosmodrome

Loading…

Próximos Pases (próximas 24 horas)

TLE

ActualizadoSource: Space-Track

Época: Sep 14, 2026, 15:16 UTC

1 10491U 77109A   26257.63631554 -.00000059  00000-0 -18486-3 0  9990
2 10491  82.9318 209.4291 0014801 203.5313 329.7074 13.17659473347480

Sigue COSMOS 963 en tiempo real con AllMySat

Download on the App Store